{"data":{"norad_id":62882,"epoch":"2026-05-25T04:14:56.186880Z","epoch_age_seconds":69790,"freshness":"FRESH","line1":"1 62882U 25024D   26145.17703920  .00221148  00000+0  16740-2 0  9993","line2":"2 62882  43.0008  80.6346 0003113 269.0725  90.9786 15.70944765 75491","mean_motion":15.70944765,"eccentricity":0.0003113,"inclination_deg":43.0008,"raan_deg":80.6346,"arg_perigee_deg":269.0725,"mean_anomaly_deg":90.9786,"bstar":0.001674,"rev_number":7549,"period_min":91.664585037145,"perigee_km":354.09924248174,"apogee_km":358.29203798355,"semimajor_km":6734.3326402326,"source":"CELESTRAK","updated_at":"2026-05-25T13:38:19.788723Z"}}